sat.trackr.live / text

‹ back to catalog

STARLINK-5767

NORAD 55586 · 2023-020T

PAYLOAD ACTIVE UNKNOWN

§ Identity

Operator
Country
US
Launch date
2023-02-12
Launch site
AFETR
Launch vehicle
Mass (kg)
RCS (m²)

Purposes: comms

External: N2YO · Heavens-Above · Gunter

§ Orbital elements

Epoch: 2026-09-20T16:39:12.809664Z

Period
94.27 min
Inclination
43.0092°
Eccentricity
0.0003360
Mean motion
15.27590308 rev/d
Perigee alt
480.7 km
Apogee alt
485.3 km
Semi-major
6,861.2 km
B*
6.7367e-5
RAAN
344.1467°
Arg perigee
299.6093°
Mean anomaly
60.4424°
Rev number
19,873

§ Raw data

STARLINK-57671 55586U 23020T   26263.69389826  .00001592  00000+0  67367-4 0  99952 55586  43.0092 344.1467 0003360 299.6093  60.4424 15.27590308198736

JSON: /api/v1/satellites/55586 · /tle

For live sub-satellite position, see the globe view (requires WebGL).

§ Visibility from observer

Set your observer location to see the next 7 days of passes ≥ 10°. The values pass through the URL so the page stays shareable.

No JS? Fill the form by hand. The geolocation button needs JavaScript.